Location: Bandys
(35.4750°N, 81.0830°W)
Time: 19:47:41
(UTC-04:00)

Daily predictions for brighter satellites

Satellite Brightness Start Highest point End
(mag) Time Altitude Azimuth Time Altitude Azimuth Time Altitude Azimuth
ATLAS 5 CENTAUR R/B 2.9 21:07:27 10° SW 21:12:07 52° NW 21:17:09 10° NNE
Cosmos 2221 2.5 21:08:26 10° N 21:12:44 86° E 21:17:00 10° S
Cosmos 1378 3.1 21:12:27 10° S 21:16:09 69° E 21:19:54 10° NNE
Cosmos 968 Rocket 3.8 21:12:18 10° S 21:17:10 44° ESE 21:22:05 10° NNE
Cosmos 1766 Rocket 3.5 21:13:29 10° S 21:17:55 79° E 21:22:20 10° N
Delta 2 Rocket 4.1 21:16:59 10° SSW 21:19:54 24° SSE 21:22:41 10° E
DELTA 2 R/B (1) 4.2 21:21:18 10° W 21:26:46 56° N 21:32:13 10° ENE
Cosmos 332 Rocket 3.9 21:24:33 10° N 21:29:22 63° ENE 21:34:10 10° SSE
ATLAS CENTAUR R/B 1.8 21:27:22 10° NNW 21:31:48 52° ENE 21:35:23 13° SE
ASTRO E2 4.2 21:28:46 10° WSW 21:32:03 24° SSW 21:35:00 12° SSE
Envisat 3.6 21:27:40 10° SE 21:32:23 40° ENE 21:37:06 10° N
Cosmos 1553 Rocket 4.2 21:28:57 10° N 21:35:14 55° E 21:41:24 10° SSE
H-2A R/B 2.6 21:34:36 10° SSW 21:35:31 11° S 21:36:02 11° SSE
Cosmos 1515 Rocket 4.4 21:31:59 10° NNE 21:36:00 33° ENE 21:39:22 13° SE
ERS-1 Rocket 3.0 21:39:49 10° SSE 21:44:50 86° WSW 21:49:54 10° NNW
Nimbus 7 Rocket 4.4 21:39:21 10° NNE 21:45:11 66° ESE 21:50:59 10° S
CZ-4 DEB 4.4 21:43:30 10° SSW 21:46:25 32° W 21:49:21 10° NNW
Cosmos 1441 Rocket 3.2 21:42:49 10° S 21:46:33 56° E 21:50:15 10° NNE
Cosmos 1777 Rocket 4.2 21:42:24 10° S 21:47:29 51° ESE 21:52:35 10° NNE
Cosmos 1939 Rocket 2.8 21:49:26 13° SSE 21:53:00 80° ENE 21:56:56 10° N
H-2A R/B 4.2 21:52:03 10° E 21:53:54 12° ENE 21:55:45 10° NE
Cosmos 2322 Rocket 2.2 21:50:39 10° NNW 21:56:16 74° ENE 22:00:36 17° SSE
SPOT 5 2.9 21:57:16 18° SSE 22:00:24 58° ENE 22:04:59 10° N
Cosmos 1437 3.9 22:02:32 24° ESE 22:02:56 25° E 22:05:42 10° NE
CZ-2C R/B 2.1 22:02:21 16° SW 22:03:13 23° W 22:04:45 10° NW
Cosmos 2151 3.6 22:01:49 22° SE 22:03:48 34° E 22:07:37 10° NNE
SL-16 R/B 2.2 21:59:07 10° NNW 22:04:49 82° ENE 22:08:55 19° SSE
NOSS 3-1 (C) 4.4 22:03:18 20° SE 22:05:19 24° ESE 22:10:04 10° ENE
SPOT 1/Viking Rocket 4.3 22:02:26 20° ESE 22:05:19 35° ENE 22:09:59 10° N
Cosmos 371 Rocket 3.3 22:01:37 10° NNW 22:06:27 82° WSW 22:09:58 18° SSE
Meteor 2-2 Rocket 4.4 22:00:56 10° N 22:06:54 65° E 22:11:17 19° SSE
Cosmos 1980 Rocket 3.7 22:02:01 10° NW 22:07:00 32° WSW 22:11:58 10° SSW
Cosmos 1908 3.7 22:03:18 10° N 22:07:03 45° E 22:08:45 27° SE
Cosmos 2360 Rocket 3.2 22:02:43 10° N 22:07:44 32° ENE 22:10:48 20° ESE
Cosmos 1151 Rocket 3.4 22:06:19 10° N 22:10:27 45° E 22:12:25 27° SE
Cosmos 1538 Rocket 4.1 22:11:03 10° NNW 22:16:23 80° WSW 22:20:05 21° S
Cosmos 1680 Rocket 4.4 22:12:49 10° N 22:17:34 34° ENE 22:19:50 24° ESE
H-2A R/B 3.0 22:13:59 12° S 22:18:03 48° W 22:22:26 10° NNW
S3M 4.4 22:13:58 10° NNW 22:19:58 62° W 22:25:59 10° S
Cosmos 923 Rocket 4.4 22:15:27 10° N 22:20:29 48° ENE 22:22:51 28° SE
Cosmos 1437 Rocket 2.7 22:22:45 10° N 22:26:34 80° W 22:28:15 32° S
Cosmos 1674 2.8 22:26:17 20° SSW 22:28:48 72° W 22:32:39 10° N
Cosmos 1833 4.2 22:23:46 10° SSW 22:29:30 86° WNW 22:35:13 10° NNE
MetOp-B 4.1 22:27:22 25° SSE 22:30:39 88° W 22:36:02 10° NNW
PSLV R/B 3.9 22:31:44 33° SSW 22:32:43 47° W 22:35:43 10° NNW
CZ-4C R/B 4.3 22:34:28 26° ENE 22:34:29 26° ENE 22:37:25 10° NNE
CZ-4B R/B 3.5 22:30:55 10° NNE 22:36:13 88° WNW 22:40:23 16° SSW
SL-08 RB Rocket 4.0 22:36:33 38° ESE 22:37:45 48° ENE 22:42:04 10° N
Cosmos 1300 3.7 22:35:50 10° NNE 22:39:16 31° E 22:39:16 31° E
Cosmos 2058 2.9 22:39:47 48° SE 22:40:30 57° E 22:44:32 10° NNE
Cosmos 1328 3.7 22:40:36 41° S 22:41:55 89° E 22:45:53 10° N
GPS 2-04 Rocket1 3.4 22:40:48 10° W 22:44:51 39° SSW 22:45:05 39° SSW
Cosmos 773 Rocket 4.1 22:41:17 10° NNW 22:46:28 74° WSW 22:48:40 35° S
COSMOS 2428 3.7 22:41:31 10° N 22:46:34 32° ENE 22:48:24 26° E
USA 229 DEB 4.5 22:40:18 10° SW 22:47:02 54° NW 22:53:53 10° NNE
USA 229 4.5 22:40:24 10° SW 22:47:08 54° NW 22:53:58 10° NNE
DELTA 2 DEB (DPAF) 4.5 22:49:23 44° ESE 22:50:12 50° ENE 22:54:33 10° N
Landsat 7 4.1 22:51:46 43° ESE 22:52:43 50° ENE 22:57:19 10° N
Cosmos 304 Rocket 3.7 22:49:08 10° NNW 22:53:58 79° ENE 22:55:07 52° SSE
Cosmos 2297 Rocket 4.4 22:59:14 10° ENE 22:59:14 10° ENE 22:59:25 10° ENE
IGS 5A 4.4 23:00:13 34° ENE 23:00:13 34° ENE 23:03:57 10° N
Delta 2 Rocket 4.2 22:58:42 10° WSW 23:00:31 29° WSW 23:00:31 29° WSW
USA 245 4.1 23:04:47 33° WNW 23:04:47 33° WNW 23:06:44 10° NNW
NOSS 3-1 (A) 3.4 23:05:11 45° SSE 23:06:39 57° ESE 23:12:49 10° NE
Terra 2.1 23:08:07 49° E 23:08:35 51° ENE 23:13:12 10° N
YAOGAN 6 4.1 23:08:39 26° WSW 23:09:23 29° W 23:12:35 10° NW
ATLAS CENTAUR R/B 3.9 23:08:40 10° W 23:10:15 12° WSW 23:11:44 10° SW
Cosmos 2219 Rocket 3.5 23:06:49 10° N 23:11:24 25° ENE 23:12:41 23° E
Cosmos 2315 Rocket 4.1 23:05:20 10° NNW 23:11:29 70° W 23:14:09 36° SSW
SL-14 R/B 3.2 23:13:39 81° NW 23:13:39 81° NW 23:17:30 10° N
DELTA 2 R/B (1) 3.6 23:08:02 10° WNW 23:13:36 73° NNE 23:15:33 41° E
Cosmos 1703 4.2 23:16:03 39° NE 23:16:03 39° NE 23:18:49 10° NNE
ARGOS 3.6 23:14:35 38° SSW 23:16:26 56° W 23:21:45 10° NNW
Cosmos 2298 Rocket 3.9 23:15:36 52° S 23:16:56 85° ESE 23:22:17 10° NNE
Meteor 1-27 4.1 23:12:51 10° N 23:18:35 88° W 23:19:54 55° S
CARTOSAT-1 3.5 23:20:21 72° ENE 23:20:21 72° ENE 23:24:34 10° N
Cosmos 2219 3.7 23:16:52 17° SW 23:21:17 60° WNW 23:26:59 10° NNE
Cosmos 2112 Rocket 4.1 23:16:38 10° NNW 23:21:50 68° WSW 23:22:47 56° SSW
Cosmos 1633 Rocket 3.1 23:26:23 69° WSW 23:26:35 71° W 23:30:58 10° N
Cosmos 1271 Rocket 3.6 23:23:41 10° N 23:26:28 41° NNE 23:26:28 41° NNE
Sich 1 3.3 23:28:03 60° WSW 23:28:25 63° W 23:32:49 10° N
ATLAS 2AS CENTAUR R/B 3.6 23:29:35 35° ESE 23:29:35 35° ESE 23:36:16 10° NE
Cosmos 2333 4.3 23:24:49 10° NNW 23:30:29 60° ENE 23:31:14 55° E
Cosmos 2322 4.3 23:26:54 10° NNW 23:32:22 48° WSW 23:33:36 41° SW
H-2A R/B 2.0 23:31:47 66° S 23:32:30 81° WSW 23:37:55 10° NNW
Cosmos 1937 Rocket 3.3 23:34:59 75° ESE 23:34:59 75° ESE 23:40:12 10° NNE
Cosmos 2082 4.4 23:36:11 39° E 23:36:11 39° E 23:40:37 10° NE
Spot 2 4.3 23:31:42 10° NNE 23:36:52 84° WNW 23:37:17 75° SW
Cosmos 2237 Rocket 3.5 23:32:06 10° N 23:36:55 28° ENE 23:37:50 26° ENE
Cosmos 1726 3.4 23:39:18 10° NNW 23:42:11 39° WNW 23:42:11 39° WNW
Nadezhda 1 Rocket 3.8 23:40:56 10° N 23:47:02 75° E 23:47:39 68° SE
Cosmos 2360 Rocket 3.4 23:46:45 10° NW 23:51:37 31° WSW 23:52:34 29° WSW
Cosmos 990 Rocket 4.1 23:53:10 66° NE 23:53:10 66° NE 23:57:41 10° NNE
Cosmos 1745 Rocket 4.1 23:52:14 51° SW 23:53:44 69° W 23:59:56 10° N
